Content
SEND FEEDBACK

Daily
Averages
Monthly
Summary
United States of America

TURON, KANSAS


Home > North America > United States > Kansas
Elevation: 1850 feet     Latitude: 37 46N     Longitude: 098 33W

WEATHER
 
SELECT A DAY
Number of Records: 262,791;   Date Range: 12/2/03 - 9/20/14
 
SHARE

PRINT THIS DATA

[ ← Previous Day ]
WEATHER ALMANAC - JANUARY 31, 2013
[ Next Day → ]
[ °C ]   °F
Weather ElementAverageHighLow
Temperature25.9 °F32 °F (8:55 am)17.6 °F (10:15 pm)
Dewpoint18.9 °F26.6 °F (8:55 am)12.2 °F (8:15 pm)
Humidity75.2 %93 % (12:55 am)64 % (12:35 pm)
Barometer30.17 in30.39 in (7:55 pm)29.95 in (1:55 am)
Wind Speed9.1 mph21.9 mph (2:15 pm)
Wind Gust25.3 mph (1:15 pm)
Weather ElementAverage
Visibility10 mi
Wind DirectionESE (128 °)

Weather ElementTotal
Precipitation---
Heating Degree Days40.2 (Base 65)
Averaged from 71 records on January 31, 2013
WEATHER CONDITIONS BREAKOUT
WIND DIRECTION BREAKOUT
WEATHER BY HOUR - JANUARY 31, 2013
[ °C ]   °F
Local TimeTemperatureDewpointHumidityBarometerVisibilityWind DirectionWind SpeedGust SpeedPrecipitationEventsConditions
12:35 AM21.2 °F17.6 °F86 %29.97 in10.0 miSW (230°)6.9 mphClear
12:55 AM21.2 °F19.4 °F93 %29.96 in10.0 miWSW (240°)8.1 mphClear
1:15 AM23.0 °F19.4 °F86 %29.96 in10.0 miWSW (250°)6.9 mphClear
1:35 AM28.4 °F21.2 °F74 %29.96 in10.0 miWest (260°)10.4 mphClear
1:55 AM23.0 °F19.4 °F86 %29.95 in10.0 miSW (230°)9.2 mphClear
2:15 AM23.0 °F19.4 °F86 %29.96 in10.0 miWSW (240°)6.9 mphClear
2:35 AM26.6 °F21.2 °F80 %29.96 in10.0 miWSW (250°)8.1 mphClear
2:55 AM26.6 °F21.2 °F80 %29.95 in10.0 miWest (260°)9.2 mphClear
3:15 AM26.6 °F19.4 °F74 %29.95 in10.0 miWest (260°)10.4 mphClear
3:35 AM28.4 °F19.4 °F69 %29.96 in10.0 miWest (280°)10.4 mphClear
3:55 AM28.4 °F19.4 °F69 %29.97 in10.0 miWNW (290°)11.5 mphClear
4:15 AM28.4 °F21.2 °F74 %29.96 in10.0 miWNW (290°)9.2 mphScattered Clouds
4:35 AM28.4 °F21.2 °F74 %29.96 in10.0 miWNW (300°)6.9 mphMostly Cloudy
4:55 AM28.4 °F21.2 °F74 %29.96 in10.0 miWest (280°)6.9 mphMostly Cloudy
5:15 AM26.6 °F21.2 °F80 %29.97 in10.0 miWNW (300°)6.9 mphScattered Clouds
5:35 AM26.6 °F21.2 °F80 %29.97 in10.0 miWest (280°)9.2 mphClear
5:55 AM24.8 °F21.2 °F86 %29.97 in10.0 miWest (260°)3.5 mphClear
6:15 AM26.6 °F21.2 °F80 %29.96 in10.0 miWNW (290°)5.8 mphScattered Clouds
6:35 AM23.0 °F21.2 °F93 %29.96 in10.0 miWest (280°)3.5 mphClear
6:55 AM26.6 °F21.2 °F80 %29.98 in10.0 miNNE (20°)6.9 mphScattered Clouds
7:15 AM26.6 °F21.2 °F80 %29.99 in10.0 miNNW (330°)4.6 mphMostly Cloudy
7:35 AM26.6 °F21.2 °F80 %30.00 in10.0 miNW (310°)5.8 mphScattered Clouds
7:55 AM28.4 °F23.0 °F80 %30.02 in10.0 miNW (310°)6.9 mphMostly Cloudy
8:15 AM28.4 °F23.0 °F80 %30.04 in10.0 miNW (310°)8.1 mphMostly Cloudy
8:35 AM30.2 °F24.8 °F80 %30.05 in10.0 miNW (310°)5.8 mphScattered Clouds
8:55 AM32.0 °F26.6 °F80 %30.07 in10.0 miNW (320°)4.6 mphScattered Clouds
9:15 AM32.0 °F26.6 °F80 %30.08 in10.0 miNorth (360°)3.5 mphMostly Cloudy
9:35 AM32.0 °F26.6 °F80 %30.09 in10.0 miNNE (20°)9.2 mphOvercast
9:55 AM32.0 °F26.6 °F80 %30.10 in10.0 miNNE (30°)15.0 mphMostly Cloudy
10:15 AM32.0 °F26.6 °F80 %30.12 in10.0 miNNE (20°)10.4 mphMostly Cloudy
10:35 AM32.0 °F26.6 °F80 %30.15 in10.0 miNorth (10°)18.4 mph23.0 mphMostly Cloudy
10:55 AM32.0 °F23.0 °F69 %30.16 in10.0 miNNE (30°)13.8 mphMostly Cloudy
11:15 AM32.0 °F23.0 °F69 %30.16 in10.0 miNNE (30°)18.4 mphOvercast
11:35 AM32.0 °F24.8 °F75 %30.18 in10.0 miNE (40°)17.3 mph23.0 mphScattered Clouds
11:55 AM30.2 °F23.0 °F75 %30.21 in10.0 miNNE (30°)16.1 mph23.0 mphScattered Clouds
12:15 PM30.2 °F21.2 °F69 %30.20 in10.0 miNE (40°)12.7 mph17.3 mphScattered Clouds
12:35 PM32.0 °F21.2 °F64 %30.21 in10.0 miNE (40°)19.6 mphMostly Cloudy
12:55 PM30.2 °F19.4 °F64 %30.23 in10.0 miNNE (30°)17.3 mph24.2 mphMostly Cloudy
1:15 PM28.4 °F19.4 °F69 %30.23 in10.0 miNE (40°)17.3 mph25.3 mphMostly Cloudy
1:35 PM30.2 °F19.4 °F64 %30.21 in10.0 miNNE (30°)18.4 mphMostly Cloudy
1:55 PM30.2 °F19.4 °F64 %30.22 in10.0 miNNE (20°)16.1 mph23.0 mphMostly Cloudy
2:15 PM30.2 °F19.4 °F64 %30.23 in10.0 miNNE (20°)21.9 mphScattered Clouds
2:35 PM30.2 °F19.4 °F64 %30.23 in10.0 miNE (40°)19.6 mph23.0 mphScattered Clouds
2:55 PM30.2 °F19.4 °F64 %30.26 in10.0 miNNE (30°)20.7 mphScattered Clouds
3:15 PM28.4 °F19.4 °F69 %30.26 in10.0 miNNE (20°)19.6 mphMostly Cloudy
3:35 PM26.6 °F19.4 °F74 %30.26 in10.0 miNE (40°)17.3 mph21.9 mphOvercast
3:55 PM26.6 °F19.4 °F74 %30.28 in10.0 miNNE (30°)16.1 mph21.9 mphOvercast
4:15 PM26.6 °F17.6 °F69 %30.30 in10.0 miNNE (20°)15.0 mphOvercast
4:35 PM24.8 °F17.6 °F74 %30.30 in10.0 miNNE (30°)11.5 mphMostly Cloudy
4:55 PM26.6 °F17.6 °F69 %30.30 in10.0 miNNE (30°)10.4 mphScattered Clouds
5:15 PM26.6 °F17.6 °F69 %30.31 in10.0 miNE (40°)10.4 mphClear
5:35 PM24.8 °F15.8 °F69 %30.31 in10.0 miNE (40°)10.4 mphClear
5:55 PM23.0 °F15.8 °F74 %30.31 in10.0 miNE (40°)10.4 mphClear
6:15 PM23.0 °F14.0 °F68 %30.34 in10.0 miNE (40°)6.9 mphClear
6:35 PM23.0 °F14.0 °F68 %30.35 in10.0 miNE (50°)4.6 mphMostly Cloudy
6:55 PM21.2 °F14.0 °F74 %30.35 in10.0 miNE (50°)4.6 mphScattered Clouds
7:15 PM21.2 °F14.0 °F74 %30.36 in10.0 miNE (50°)6.9 mphClear
7:35 PM21.2 °F14.0 °F74 %30.37 in10.0 miEast (100°)3.5 mphClear
7:55 PM19.4 °F14.0 °F80 %30.39 in10.0 miSE (130°)3.5 mphClear
8:15 PM19.4 °F12.2 °F74 %30.38 in10.0 miENE (70°)3.5 mphClear
8:35 PM19.4 °F12.2 °F74 %30.38 in10.0 miCalmClear
8:55 PM19.4 °F12.2 °F74 %30.38 in10.0 miCalmClear
9:15 PM19.4 °F12.2 °F74 %30.38 in10.0 miCalmScattered Clouds
9:35 PM19.4 °F12.2 °F74 %30.38 in10.0 miESE (120°)4.6 mphScattered Clouds
9:55 PM19.4 °F12.2 °F74 %30.37 in10.0 miCalmScattered Clouds
10:15 PM17.6 °F12.2 °F79 %30.38 in10.0 miSouth (170°)4.6 mphClear
10:35 PM17.6 °F12.2 °F79 %30.38 in10.0 miCalmScattered Clouds
10:55 PM19.4 °F12.2 °F74 %30.38 in10.0 miSouth (180°)4.6 mphMostly Cloudy
11:15 PM19.4 °F12.2 °F74 %30.38 in10.0 miCalmScattered Clouds
11:35 PM19.4 °F12.2 °F74 %30.38 in10.0 miCalmScattered Clouds
11:55 PM17.6 °F12.2 °F79 %30.37 in10.0 miCalmScattered Clouds
Hourly data recorded from KPTT, located miles away from Turon, Kansas







STORIES FROM OUR PARTNERS